When you browse on this site, cookies collect data to enhance your experience and personalize the content and advertising you see.
Visit our Privacy Policy to learn more. By continuing to use the site, you agree to this use of cookies and data.
  • In Latvia
  • List of Countries
  • For 7 days
  • Water Temperature
  • Weather Map
  • Weather Widgets
  • user-avatar
    Login

    Hourly Weather Salta

    Today, 18 October, Friday

    Time Temperature Precipitation Wind Pressure Humidity
    00:00 +15°C° 0 mm 1 mps 651 mmHg 69%
    01:00 +13°C° 0 mm 0 mps 651 mmHg 72%
    02:00 +12°C° 0 mm 0 mps 651 mmHg 74%
    03:00 +12°C° 0 mm 0 mps 651 mmHg 75%
    04:00 +12°C° 0 mm 0 mps 651 mmHg 77%
    05:00 +11°C° 0 mm 0 mps 651 mmHg 78%
    06:00 +13°C° 0 mm 1 mps 652 mmHg 73%
    07:00 +15°C° 0 mm 1 mps 653 mmHg 68%
    08:00 +16°C° 0 mm 1 mps 653 mmHg 63%
    09:00 +18°C° 0 mm 1 mps 653 mmHg 62%
    10:00 +17°C° 0 mm 2 mps 653 mmHg 60%
    11:00 +18°C° 0 mm 2 mps 653 mmHg 58%
    12:00 +18°C° 0 mm 2 mps 652 mmHg 58%
    13:00 +18°C° 0 mm 2 mps 652 mmHg 58%
    14:00 +19°C° 0 mm 2 mps 651 mmHg 58%
    15:00 +18°C° 0 mm 2 mps 651 mmHg 60%
    16:00 +18°C° 0 mm 2 mps 650 mmHg 62%
    17:00 +17°C° 0 mm 2 mps 650 mmHg 64%
    18:00 +17°C° 0 mm 2 mps 651 mmHg 66%
    19:00 +16°C° 0 mm 1 mps 651 mmHg 68%
    20:00 +16°C° 0 mm 1 mps 652 mmHg 70%
    21:00 +15°C° 0 mm 1 mps 652 mmHg 72%
    22:00 +15°C° 0 mm 1 mps 653 mmHg 73%
    23:00 +15°C° 0 mm 1 mps 653 mmHg 74%

    Tomorrow, 19 October, Saturday

    Time Temperature Precipitation Wind Pressure Humidity
    00:00 +15°C° 0 mm 1 mps 653 mmHg 74%
    01:00 +15°C° 0 mm 1 mps 653 mmHg 74%
    02:00 +14°C° 0 mm 0 mps 653 mmHg 73%
    03:00 +14°C° 0 mm 0 mps 653 mmHg 74%
    04:00 +13°C° 0 mm 0 mps 653 mmHg 76%
    05:00 +13°C° 0 mm 0 mps 653 mmHg 77%
    06:00 +15°C° 0 mm 1 mps 653 mmHg 75%
    07:00 +15°C° 0 mm 1 mps 654 mmHg 73%
    08:00 +16°C° 0 mm 1 mps 654 mmHg 71%
    09:00 +18°C° 0 mm 1 mps 654 mmHg 66%
    10:00 +19°C° 0 mm 1 mps 654 mmHg 62%
    11:00 +20°C° 0 mm 1 mps 654 mmHg 58%
    12:00 +19°C° 0 mm 2 mps 653 mmHg 58%
    13:00 +19°C° 0 mm 2 mps 652 mmHg 58%
    14:00 +19°C° 0 mm 2 mps 651 mmHg 58%
    15:00 +19°C° 0 mm 2 mps 651 mmHg 59%
    16:00 +20°C° 0 mm 1 mps 650 mmHg 61%
    17:00 +19°C° 0 mm 1 mps 650 mmHg 62%
    18:00 +19°C° 0 mm 1 mps 650 mmHg 66%
    19:00 +18°C° 0 mm 1 mps 650 mmHg 70%
    20:00 +15°C° 0 mm 0 mps 650 mmHg 74%
    21:00 +15°C° 0 mm 0 mps 650 mmHg 76%
    22:00 +14°C° 0 mm 0 mps 650 mmHg 77%
    23:00 +14°C° 0 mm 0 mps 650 mmHg 78%

    Day after tomorrow, 20 October, Sunday

    Time Temperature Precipitation Wind Pressure Humidity
    00:00 +14°C° 0 mm 0 mps 650 mmHg 79%
    01:00 +15°C° 0 mm 1 mps 650 mmHg 79%
    02:00 +14°C° 0 mm 1 mps 649 mmHg 80%
    03:00 +14°C° 0 mm 1 mps 649 mmHg 82%
    04:00 +14°C° 0 mm 1 mps 649 mmHg 83%
    05:00 +14°C° 0 mm 1 mps 649 mmHg 85%
    06:00 +15°C° 0 mm 1 mps 650 mmHg 82%
    07:00 +16°C° 0 mm 1 mps 650 mmHg 78%
    08:00 +16°C° 0 mm 1 mps 650 mmHg 74%
    09:00 +18°C° 0 mm 2 mps 650 mmHg 67%
    10:00 +20°C° 0 mm 2 mps 650 mmHg 59%
    11:00 +23°C° 0 mm 2 mps 651 mmHg 52%
    12:00 +24°C° 0 mm 2 mps 650 mmHg 50%
    13:00 +24°C° 0 mm 2 mps 650 mmHg 49%
    14:00 +25°C° 0 mm 3 mps 649 mmHg 48%
    15:00 +22°C° 0 mm 3 mps 649 mmHg 55%
    16:00 +21°C° 0 mm 3 mps 649 mmHg 61%
    17:00 +20°C° 0 mm 3 mps 649 mmHg 67%
    18:00 +19°C° 0 mm 2 mps 649 mmHg 70%
    19:00 +18°C° 0 mm 2 mps 650 mmHg 73%
    20:00 +19°C° 0 mm 1 mps 651 mmHg 75%
    21:00 +18°C° 0 mm 1 mps 651 mmHg 75%
    22:00 +18°C° 0 mm 1 mps 651 mmHg 76%
    23:00 +18°C° 0 mm 1 mps 652 mmHg 76%

    21 October, Monday

    Time Temperature Precipitation Wind Pressure Humidity
    00:00 +18°C° 0 mm 1 mps 652 mmHg 77%
    01:00 +16°C° 0 mm 1 mps 651 mmHg 78%
    02:00 +16°C° 0 mm 1 mps 651 mmHg 80%
    03:00 +16°C° 0 mm 1 mps 651 mmHg 79%
    04:00 +16°C° 0 mm 1 mps 651 mmHg 79%
    05:00 +16°C° 0 mm 1 mps 652 mmHg 78%
    06:00 +16°C° 0 mm 1 mps 652 mmHg 75%
    07:00 +18°C° 0 mm 1 mps 653 mmHg 72%
    08:00 +19°C° 0 mm 1 mps 653 mmHg 69%
    09:00 +20°C° 0 mm 1 mps 653 mmHg 60%
    10:00 +21°C° 0 mm 2 mps 653 mmHg 51%
    11:00 +24°C° 0 mm 3 mps 653 mmHg 42%
    12:00 +24°C° 0 mm 3 mps 653 mmHg 43%
    13:00 +24°C° 0 mm 3 mps 652 mmHg 44%
    14:00 +24°C° 0 mm 3 mps 651 mmHg 45%
    15:00 +22°C° 0 mm 3 mps 650 mmHg 48%
    16:00 +21°C° 0 mm 3 mps 650 mmHg 52%
    17:00 +20°C° 0 mm 2 mps 649 mmHg 55%
    18:00 +19°C° 0 mm 2 mps 650 mmHg 58%
    19:00 +20°C° 0 mm 1 mps 650 mmHg 60%
    20:00 +19°C° 0 mm 1 mps 651 mmHg 62%
    21:00 +18°C° 0 mm 1 mps 651 mmHg 64%
    22:00 +18°C° 0 mm 1 mps 651 mmHg 65%
    23:00 +16°C° 0 mm 1 mps 651 mmHg 66%

    22 October, Tuesday

    Time Temperature Precipitation Wind Pressure Humidity
    00:00 +16°C° 0 mm 1 mps 651 mmHg 67%
    01:00 +15°C° 0 mm 1 mps 651 mmHg 67%
    02:00 +15°C° 0 mm 1 mps 650 mmHg 68%
    03:00 +14°C° 0 mm 1 mps 650 mmHg 69%
    04:00 +14°C° 0 mm 1 mps 650 mmHg 70%
    05:00 +13°C° 0 mm 1 mps 650 mmHg 71%
    06:00 +15°C° 0 mm 1 mps 651 mmHg 66%
    07:00 +16°C° 0 mm 1 mps 652 mmHg 60%
    08:00 +19°C° 0 mm 1 mps 652 mmHg 55%
    09:00 +19°C° 0 mm 2 mps 652 mmHg 49%
    10:00 +21°C° 0 mm 3 mps 652 mmHg 44%
    11:00 +22°C° 0 mm 3 mps 652 mmHg 39%
    12:00 +24°C° 0 mm 3 mps 651 mmHg 37%
    13:00 +25°C° 0 mm 3 mps 651 mmHg 35%
    14:00 +26°C° 0 mm 3 mps 650 mmHg 33%
    15:00 +25°C° 0 mm 3 mps 650 mmHg 34%
    16:00 +25°C° 0 mm 3 mps 649 mmHg 35%
    17:00 +25°C° 0 mm 3 mps 649 mmHg 35%
    18:00 +23°C° 0 mm 2 mps 649 mmHg 42%
    19:00 +19°C° 0 mm 2 mps 649 mmHg 48%
    20:00 +18°C° 0 mm 1 mps 649 mmHg 54%
    21:00 +18°C° 0 mm 1 mps 649 mmHg 56%
    22:00 +16°C° 0 mm 1 mps 650 mmHg 58%
    23:00 +15°C° 0 mm 0 mps 650 mmHg 60%

    23 October, Wednesday

    Time Temperature Precipitation Wind Pressure Humidity
    00:00 +14°C° 0 mm 0 mps 650 mmHg 62%
    01:00 +14°C° 0 mm 0 mps 650 mmHg 63%
    02:00 +14°C° 0 mm 0 mps 649 mmHg 65%
    03:00 +14°C° 0 mm 1 mps 650 mmHg 66%
    04:00 +14°C° 0 mm 1 mps 650 mmHg 67%
    05:00 +14°C° 0 mm 1 mps 650 mmHg 67%
    06:00 +15°C° 0 mm 1 mps 651 mmHg 62%
    07:00 +18°C° 0 mm 1 mps 652 mmHg 56%
    08:00 +20°C° 0 mm 1 mps 653 mmHg 50%
    09:00 +21°C° 0 mm 2 mps 653 mmHg 46%
    10:00 +23°C° 0 mm 2 mps 652 mmHg 42%
    11:00 +25°C° 0 mm 3 mps 652 mmHg 38%
    12:00 +25°C° 0 mm 3 mps 652 mmHg 37%
    13:00 +26°C° 0 mm 3 mps 651 mmHg 35%
    14:00 +27°C° 0 mm 3 mps 651 mmHg 33%
    15:00 +26°C° 0 mm 3 mps 650 mmHg 34%
    16:00 +26°C° 0 mm 3 mps 650 mmHg 35%
    17:00 +25°C° 0 mm 3 mps 650 mmHg 36%
    18:00 +24°C° 0 mm 2 mps 650 mmHg 41%
    19:00 +21°C° 0 mm 2 mps 650 mmHg 45%
    20:00 +21°C° 0 mm 1 mps 650 mmHg 50%
    21:00 +20°C° 0 mm 1 mps 650 mmHg 52%
    22:00 +19°C° 0 mm 1 mps 650 mmHg 55%
    23:00 +18°C° 0 mm 1 mps 651 mmHg 58%
    Show more